カタログに戻る

CZ-6A DEB

運用中PO
NORAD 61322·DEBRIS·🇨🇳 China

打ち上げ Aug 6, 2024 から Taiyuan Satellite Launch Center

Loading…

次のパス (今後24時間)

TLE

最新Source: Space-Track

元期: Sep 13, 2026, 10:13 UTC

1 61322U 24140UK  26256.42592344  .00005364  00000-0  85671-3 0  9997
2 61322  88.8775 247.4786 0106814 310.0335  49.1546 14.67952894108140

AllMySatでCZ-6A DEBをリアルタイム追跡

Download on the App Store